Temp
74 77 77 70 54 54 52 58 66 63 64 69 73 68 65 69 65 57 76 80 82 81 81 80 79 79 79 79 79 78 78 78 78 79 79 79 79 79 79 79 79 80 80 79 79 79 78 78 77
73 81 73 64 51 47 52 63 61 66 68 71 72 67 69 65 74 74 75 78 82 82 81 82 78 78 79 78 78 78 78 78 78 79 79 79 79 79 79 79 79 79 80 79 79 78 77 77 76
73 81 63 57 53 50 53 62 63 67 67 68 67 71 68 65 72 71 74 77 81 82 81 81 78 78 78 78 78 78 78 78 78 78 78 79 79 79 79 79 79 78 78 78 78 77 76 76 76
72 68 65 53 53 58 60 62 66 66 66 70 70 64 69 72 69 72 75 76 80 77 81 77 78 78 78 78 78 78 78 78 78 78 78 79 79 79 79 78 77 77 77 77 77 76 75 75 76
70 64 53 51 55 60 63 68 65 64 65 67 66 64 63 70 73 74 73 75 75 75 79 78 77 78 78 78 78 78 78 78 78 78 78 79 79 78 77 77 76 76 76 77 76 76 75 75 75
59 61 50 48 56 61 63 64 63 63 65 66 62 64 62 69 68 69 74 73 75 73 77 78 76 76 77 77 77 77 78 78 78 78 78 78 78 78 78 77 76 76 77 76 76 76 75 75 76
55 52 49 53 55 56 61 64 60 61 63 62 63 60 63 65 67 69 72 74 75 74 75 76 77 76 75 76 76 76 77 77 77 77 77 76 76 76 77 76 76 76 76 76 76 75 75 75 75
57 54 51 51 53 53 59 61 63 61 59 65 67 57 57 64 69 68 70 70 72 74 73 73 75 77 75 74 74 74 75 75 75 75 74 73 72 73 75 74 74 75 76 75 75 75 75 74 74
62 47 46 52 54 54 60 57 61 63 58 64 64 63 67 71 71 66 64 66 67 71 71 72 73 74 75 77 76 73 73 72 72 72 71 69 72 74 74 72 72 74 74 74 74 74 74 73 71
53 46 50 57 56 55 59 58 59 58 59 59 63 69 71 70 67 63 61 60 62 65 68 70 71 72 73 75 74 75 74 72 72 73 73 72 73 75 77 71 70 72 73 73 74 74 73 71 68
54 48 55 56 57 57 57 56 59 55 52 58 58 62 66 65 64 62 61 61 62 64 65 68 70 71 71 71 70 74 75 73 75 75 75 75 77 74 75 68 71 69 68 70 70 69 68 67 68
50 56 57 56 56 55 53 58 54 56 55 63 63 64 63 61 61 61 61 61 61 63 64 67 68 69 70 71 70 72 73 73 72 75 77 76 78 74 73 70 70 71 70 69 69 69 68 68 70
51 54 56 57 55 54 57 52 52 54 60 63 65 65 61 60 61 62 63 64 63 62 63 64 66 66 69 70 72 72 69 70 71 73 75 75 75 74 73 70 69 70 71 72 71 71 72 71 70
54 55 54 55 55 56 52 52 53 56 61 62 63 60 61 61 61 62 62 62 64 65 64 64 65 66 67 67 71 72 77 73 72 73 73 75 76 72 72 70 69 70 69 73 73 71 70 71 71
54 48 51 52 54 52 52 47 49 57 62 61 61 62 62 62 63 62 63 63 64 65 65 65 65 66 65 65 68 72 73 75 72 71 74 74 76 74 71 69 69 69 69 69 70 71 70 70 73
48 45 39 50 52 51 49 41 55 59 56 56 60 61 62 62 64 64 65 64 65 63 64 65 70 66 64 64 65 68 71 71 71 71 69 74 75 73 70 69 69 69 69 68 67 67 67 67 66
43 34 38 45 53 51 46 42 54 58 58 56 57 59 60 61 62 62 63 63 64 64 64 64 64 65 64 64 63 65 68 67 69 73 70 73 76 76 73 70 69 68 67 68 67 66 67 65 65
37 38 43 41 48 48 44 43 52 56 57 54 55 56 57 58 60 63 63 63 63 63 63 63 64 64 65 63 62 63 64 64 66 67 72 72 69 71 70 71 70 72 66 66 65 66 66 67 68
46 44 43 48 52 45 44 45 50 55 55 52 51 53 54 56 60 62 62 61 61 61 61 61 62 63 62 60 59 60 60 62 64 67 67 74 72 70 69 66 67 68 67 66 67 66 66 64 69
44 41 41 46 50 46 44 44 51 54 52 52 49 49 51 51 53 56 58 59 58 59 61 60 61 62 62 60 60 61 62 62 64 66 69 68 72 72 70 68 67 67 65 65 65 66 65 63 64
43 40 40 40 46 48 43 39 47 51 54 53 51 50 50 49 49 52 54 56 56 56 58 61 61 61 62 62 61 60 61 62 61 63 67 69 68 68 68 68 67 66 65 63 63 64 64 62 61
39 47 46 44 37 26 42 22 39 46 48 50 46 44 48 49 50 51 52 52 53 56 57 58 61 61 62 61 59 58 57 57 60 62 64 66 66 66 68 67 66 65 64 63 63 64 63 62 61
42 47 43 42 37 35 37 24 35 45 41 43 42 44 46 48 49 50 50 52 53 55 55 57 59 60 61 59 59 57 56 57 60 61 62 61 63 64 67 66 65 64 63 63 63 62 61 61 61
49 43 44 42 39 24 35 30 29 32 38 39 42 44 47 48 49 50 51 51 51 53 54 56 58 59 60 59 58 57 56 57 57 58 58 60 61 63 65 66 64 66 65 62 61 61 61 62 63
45 38 27 21 28 23 39 30 32 41 42 41 42 45 47 48 48 48 47 47 49 51 54 57 58 58 59 58 58 58 57 57 57 58 59 59 59 61 64 63 65 63 63 64 62 61 61 61 62
44 42 29 19 23 25 40 26 32 45 44 44 45 45 47 49 49 47 46 46 47 50 52 53 54 57 57 58 58 58 59 58 58 59 58 58 58 58 60 61 62 62 63 62 61 60 61 62 61
41 36 42 27 30 29 29 33 41 45 43 44 44 48 46 46 48 47 47 46 47 48 50 50 52 52 52 52 56 57 55 57 58 59 61 63 60 64 64 62 62 63 63 63 61 61 61 61 61
42 43 32 32 22 22 30 30 31 33 38 44 43 46 46 47 47 47 46 46 47 47 48 49 50 49 49 50 51 51 50 51 53 57 59 58 55 58 58 57 56 57 60 61 60 60 60 60 59
37 35 36 35 32 26 25 29 37 35 40 42 45 46 47 47 47 48 46 46 46 47 46 46 48 48 47 48 48 49 49 49 50 50 52 52 52 52 52 52 52 51 51 54 54 53 56 58 56
45 40 38 30 31 33 31 30 47 44 45 47 45 48 46 47 48 48 47 46 46 45 45 45 46 46 47 47 47 47 47 48 47 47 48 50 49 50 50 51 50 49 50 50 51 50 50 50 50
MSLP
1012.72 1012.11 1011.75 1011.50 1011.96 1011.04 1009.97 1008.54 1007.83 1008.16 1008.06 1008.20 1008.02 1008.56 1008.94 1009.37 1009.95 1011.24 1012.05 1012.14 1012.06 1012.02 1012.03 1012.48 1012.81 1013.03 1013.28 1013.47 1013.77 1014.03 1014.34 1014.56 1014.80 1015.01 1015.18 1015.38 1015.72 1015.92 1015.99 1016.12 1016.26 1016.29 1016.33 1016.46 1016.63 1016.79 1017.03 1017.22 1017.44
1012.47 1011.54 1011.34 1011.23 1011.44 1010.63 1009.21 1008.30 1008.53 1008.76 1009.04 1008.91 1008.92 1009.17 1009.22 1010.69 1010.77 1011.51 1011.79 1012.45 1012.05 1012.00 1012.07 1012.33 1012.87 1013.17 1013.35 1013.63 1013.90 1014.16 1014.39 1014.66 1014.92 1015.11 1015.27 1015.39 1015.78 1015.96 1016.13 1016.21 1016.36 1016.49 1016.60 1016.74 1016.93 1017.13 1017.27 1017.51 1017.73
1012.65 1011.40 1011.47 1011.17 1010.83 1009.96 1009.10 1008.75 1008.95 1009.49 1009.67 1009.67 1009.60 1009.84 1010.59 1011.72 1012.01 1012.51 1012.82 1012.83 1011.96 1011.79 1011.99 1012.13 1012.80 1013.21 1013.55 1013.79 1013.99 1014.22 1014.41 1014.68 1014.91 1015.20 1015.37 1015.40 1015.83 1015.98 1016.15 1016.23 1016.38 1016.53 1016.73 1016.92 1017.14 1017.38 1017.61 1017.79 1017.89
1011.99 1011.84 1011.69 1011.08 1010.29 1009.70 1009.36 1009.21 1009.51 1009.99 1010.18 1010.07 1010.17 1010.94 1011.98 1012.70 1012.80 1013.35 1013.22 1013.03 1012.44 1012.42 1012.03 1012.37 1012.79 1013.13 1013.55 1013.78 1014.09 1014.32 1014.49 1014.67 1014.86 1015.11 1015.26 1015.38 1015.74 1015.99 1016.12 1016.29 1016.49 1016.70 1016.89 1017.09 1017.26 1017.50 1017.85 1018.01 1018.11
1012.09 1011.74 1011.54 1011.10 1010.19 1010.00 1009.93 1009.89 1010.17 1010.35 1010.50 1010.67 1010.81 1011.33 1012.39 1013.15 1013.48 1013.56 1013.33 1013.22 1013.06 1012.91 1012.38 1012.57 1012.89 1013.27 1013.57 1013.83 1014.02 1014.25 1014.51 1014.63 1014.89 1015.16 1015.30 1015.45 1015.69 1015.98 1016.16 1016.37 1016.61 1016.82 1017.01 1017.21 1017.41 1017.57 1017.82 1018.04 1018.20
1012.28 1011.99 1011.56 1011.10 1010.39 1010.30 1010.56 1010.73 1010.75 1010.64 1010.89 1011.14 1011.34 1011.68 1013.02 1013.45 1013.82 1013.92 1013.57 1013.28 1013.26 1013.28 1012.93 1012.87 1013.17 1013.34 1013.60 1013.86 1014.07 1014.31 1014.47 1014.61 1014.83 1015.07 1015.28 1015.46 1015.64 1015.84 1016.03 1016.25 1016.46 1016.83 1017.10 1017.31 1017.56 1017.75 1017.89 1018.03 1018.16
1012.67 1012.50 1011.70 1010.85 1010.77 1011.03 1011.37 1011.82 1011.67 1011.45 1011.28 1011.64 1011.66 1011.97 1013.13 1013.78 1013.96 1013.98 1013.89 1013.59 1013.36 1013.27 1013.30 1013.21 1013.29 1013.48 1013.66 1013.92 1014.09 1014.25 1014.41 1014.60 1014.83 1015.03 1015.25 1015.37 1015.51 1015.76 1015.94 1016.14 1016.43 1016.72 1016.97 1017.24 1017.53 1017.82 1018.03 1018.10 1018.16
1013.09 1012.74 1011.95 1011.37 1011.38 1012.05 1012.58 1012.63 1012.88 1012.64 1012.54 1012.31 1012.10 1012.44 1013.19 1013.76 1013.78 1013.83 1013.89 1013.94 1013.82 1013.68 1013.52 1013.55 1013.42 1013.43 1013.56 1013.68 1013.94 1014.21 1014.31 1014.42 1014.62 1014.90 1015.18 1015.37 1015.52 1015.67 1015.82 1015.99 1016.28 1016.60 1016.92 1017.25 1017.42 1017.68 1017.95 1018.15 1018.30
1013.32 1013.50 1013.00 1012.32 1012.33 1013.27 1013.51 1013.49 1013.64 1013.59 1013.43 1012.85 1012.56 1012.70 1013.05 1013.24 1013.41 1013.58 1013.93 1014.20 1014.16 1014.01 1013.94 1013.78 1013.57 1013.51 1013.45 1013.37 1013.51 1013.69 1014.05 1014.29 1014.47 1014.63 1014.86 1015.25 1015.38 1015.41 1015.64 1015.91 1016.18 1016.49 1016.82 1017.11 1017.38 1017.64 1017.88 1018.08 1018.25
1013.73 1013.87 1013.91 1013.83 1013.79 1014.09 1014.31 1014.37 1014.32 1014.20 1013.62 1013.35 1013.08 1012.89 1012.85 1012.96 1013.36 1013.79 1014.11 1014.37 1014.45 1014.38 1014.13 1014.12 1013.98 1013.67 1013.60 1013.42 1013.55 1013.58 1013.69 1013.97 1014.20 1014.32 1014.49 1014.82 1014.99 1014.96 1015.06 1015.48 1016.01 1016.31 1016.61 1016.90 1017.17 1017.46 1017.73 1017.97 1018.17
1014.07 1014.28 1014.56 1014.88 1015.01 1015.18 1015.10 1014.98 1014.80 1014.71 1014.10 1013.63 1013.55 1013.36 1013.37 1013.47 1013.75 1014.08 1014.30 1014.45 1014.35 1014.24 1014.17 1014.10 1014.07 1013.82 1013.63 1013.60 1013.53 1013.49 1013.21 1013.44 1013.60 1013.77 1013.93 1014.19 1014.30 1014.34 1014.70 1015.42 1015.83 1016.26 1016.59 1016.86 1016.94 1017.28 1017.54 1017.75 1017.80
1014.59 1014.81 1015.10 1015.43 1015.87 1015.93 1015.79 1015.60 1015.39 1014.98 1014.39 1013.86 1013.85 1013.86 1014.06 1014.28 1014.32 1014.37 1014.42 1014.46 1014.29 1014.13 1013.99 1013.90 1013.86 1013.88 1013.66 1013.42 1013.54 1013.24 1013.11 1013.11 1013.33 1013.30 1013.31 1013.53 1013.67 1013.98 1014.29 1014.92 1015.50 1015.98 1016.15 1016.58 1016.84 1017.07 1017.25 1017.28 1017.21
1014.68 1015.10 1015.59 1015.75 1016.20 1016.25 1016.09 1015.99 1015.85 1014.69 1014.34 1014.04 1013.85 1013.88 1014.08 1014.27 1014.29 1014.30 1014.15 1013.98 1013.90 1013.87 1013.80 1013.66 1013.65 1013.67 1013.53 1013.38 1013.05 1013.05 1013.04 1013.06 1013.07 1013.12 1012.93 1013.08 1013.26 1013.61 1013.97 1014.52 1014.93 1015.41 1015.68 1015.87 1016.13 1016.45 1016.65 1016.72 1016.68
1014.90 1015.29 1015.64 1015.74 1016.06 1016.10 1016.10 1015.91 1015.74 1014.07 1013.57 1013.83 1013.85 1013.90 1013.98 1014.00 1013.90 1013.85 1013.79 1013.74 1013.66 1013.57 1013.43 1013.19 1013.26 1013.33 1013.21 1013.16 1012.94 1012.73 1012.25 1012.25 1012.60 1012.60 1012.77 1012.85 1012.95 1013.26 1013.65 1014.12 1014.51 1014.75 1015.07 1015.36 1015.40 1015.73 1015.95 1016.11 1016.07
1015.51 1015.58 1015.57 1015.61 1015.86 1016.07 1016.32 1015.37 1014.94 1013.85 1013.46 1013.47 1013.73 1013.53 1013.37 1013.34 1013.04 1013.00 1013.03 1013.20 1013.07 1013.12 1012.98 1012.95 1012.87 1012.91 1012.95 1012.87 1012.69 1012.39 1012.18 1011.87 1011.99 1012.39 1012.47 1012.73 1012.60 1012.84 1013.38 1014.01 1014.29 1014.37 1014.65 1015.01 1015.21 1015.35 1015.38 1015.62 1015.66
1015.69 1015.72 1015.51 1015.67 1015.92 1016.17 1016.22 1015.08 1013.72 1013.52 1013.53 1013.56 1013.37 1013.17 1012.90 1012.64 1012.34 1012.23 1012.22 1012.30 1012.44 1012.54 1012.62 1012.40 1012.47 1012.48 1012.49 1012.56 1012.54 1012.26 1012.02 1011.88 1011.77 1011.77 1012.23 1012.32 1012.38 1012.46 1012.98 1013.53 1013.91 1014.02 1014.27 1014.71 1015.22 1015.30 1015.53 1015.57 1015.70
1015.94 1015.69 1015.53 1015.61 1015.74 1016.05 1016.27 1015.25 1013.87 1013.51 1013.58 1013.45 1013.24 1013.04 1012.66 1012.30 1012.12 1012.00 1012.11 1012.34 1012.36 1012.34 1012.30 1012.13 1012.01 1012.05 1012.07 1012.14 1012.25 1012.18 1011.78 1011.84 1011.72 1011.39 1011.78 1011.83 1011.95 1012.07 1012.39 1012.97 1013.35 1013.59 1014.10 1014.50 1014.83 1015.10 1015.33 1015.59 1015.65
1015.89 1015.56 1015.25 1015.45 1015.84 1016.10 1016.08 1015.26 1014.31 1013.67 1013.33 1013.17 1013.05 1012.92 1012.90 1012.74 1012.42 1012.18 1012.16 1012.19 1012.25 1012.18 1012.08 1011.94 1011.63 1011.57 1011.60 1011.73 1011.82 1011.85 1011.71 1011.74 1011.72 1011.61 1011.20 1011.43 1011.86 1011.92 1012.14 1012.46 1012.87 1012.98 1013.82 1014.24 1014.60 1014.88 1015.00 1015.23 1015.41
1016.06 1015.84 1015.70 1015.37 1015.54 1016.02 1015.80 1015.08 1014.04 1013.28 1013.03 1013.06 1013.38 1013.54 1013.61 1013.44 1012.86 1012.61 1012.41 1012.42 1012.31 1012.10 1011.84 1011.74 1011.49 1011.12 1011.17 1011.46 1011.70 1011.71 1011.58 1011.69 1011.70 1011.54 1011.24 1010.93 1011.24 1011.56 1011.77 1012.22 1012.56 1012.76 1013.33 1013.71 1014.08 1014.55 1014.78 1015.07 1015.02
1016.79 1016.52 1016.15 1015.91 1016.11 1016.41 1015.80 1014.90 1013.44 1013.08 1013.10 1013.65 1014.33 1014.73 1014.78 1014.63 1014.34 1014.01 1013.55 1012.95 1012.81 1012.49 1011.92 1011.21 1011.08 1010.91 1010.68 1010.72 1010.92 1011.08 1011.08 1011.07 1011.22 1011.23 1010.96 1011.07 1011.01 1011.08 1011.51 1011.99 1012.41 1012.81 1013.31 1013.57 1013.89 1014.22 1014.67 1014.97 1015.04
1017.09 1017.02 1016.91 1017.11 1016.74 1016.23 1016.13 1014.51 1013.29 1013.27 1013.45 1013.88 1014.78 1015.41 1015.72 1015.80 1015.40 1014.76 1014.16 1013.71 1013.01 1012.37 1011.86 1011.33 1010.52 1010.41 1010.25 1010.11 1010.33 1010.64 1010.66 1010.74 1011.04 1010.91 1010.75 1010.83 1011.02 1011.04 1011.20 1011.61 1012.13 1012.52 1012.91 1013.43 1013.75 1013.95 1014.30 1014.64 1014.80
1017.42 1017.57 1017.65 1017.60 1017.65 1017.69 1017.44 1016.63 1014.47 1013.81 1013.88 1014.33 1015.08 1015.92 1016.32 1016.07 1015.61 1015.06 1014.35 1013.79 1013.29 1012.35 1011.51 1011.10 1010.44 1009.76 1009.75 1009.88 1009.99 1010.29 1010.55 1010.64 1010.55 1010.49 1010.56 1010.58 1010.75 1010.83 1010.84 1011.19 1011.77 1012.21 1012.66 1012.98 1013.32 1013.65 1013.83 1014.15 1014.48
1017.92 1017.99 1018.15 1018.24 1018.38 1018.65 1017.60 1017.86 1015.37 1014.62 1014.86 1015.33 1016.00 1016.62 1016.42 1016.07 1015.67 1015.04 1014.57 1013.89 1013.00 1012.09 1011.22 1010.60 1010.14 1009.38 1009.36 1009.51 1009.75 1009.94 1010.01 1010.09 1010.07 1010.09 1010.27 1010.37 1010.51 1010.69 1010.48 1010.82 1011.38 1011.86 1012.19 1012.53 1012.84 1013.07 1013.43 1013.62 1013.90
1018.36 1018.31 1017.96 1018.38 1018.95 1018.96 1017.58 1017.76 1015.93 1015.61 1015.70 1015.87 1016.28 1016.50 1016.21 1015.93 1015.51 1015.07 1014.51 1013.77 1012.84 1011.60 1010.61 1010.07 1009.59 1009.07 1009.00 1009.12 1009.51 1009.70 1009.67 1009.82 1009.92 1009.98 1010.18 1010.05 1010.18 1010.38 1010.62 1010.80 1011.03 1011.31 1011.61 1012.08 1012.43 1012.67 1012.97 1013.16 1013.24
1018.46 1018.20 1018.30 1019.09 1019.09 1018.19 1017.65 1017.74 1015.67 1015.45 1015.76 1016.31 1016.60 1016.24 1015.97 1015.67 1015.42 1015.14 1014.64 1013.81 1012.61 1011.45 1010.24 1009.66 1008.98 1008.87 1008.78 1008.99 1009.19 1009.24 1009.56 1009.60 1009.65 1009.73 1009.89 1009.92 1009.88 1009.93 1010.17 1010.48 1010.76 1010.97 1011.20 1011.52 1011.90 1012.27 1012.48 1012.65 1012.73
1018.15 1018.55 1019.19 1019.71 1019.27 1018.39 1017.41 1016.99 1015.28 1015.29 1015.76 1016.03 1016.09 1016.03 1015.86 1015.56 1015.42 1015.22 1014.69 1013.97 1013.10 1012.21 1011.32 1010.38 1009.58 1009.12 1009.08 1008.99 1008.88 1008.86 1009.01 1009.26 1009.31 1009.32 1009.44 1009.63 1009.57 1009.75 1010.10 1010.45 1010.50 1010.56 1010.95 1011.06 1011.38 1011.69 1011.86 1012.01 1012.17
1018.46 1018.90 1019.54 1019.97 1019.34 1019.03 1017.33 1016.34 1015.25 1015.16 1015.64 1015.86 1015.91 1015.71 1015.48 1015.38 1015.21 1015.20 1014.89 1014.47 1013.76 1012.98 1012.23 1011.49 1010.85 1010.49 1010.00 1009.72 1008.86 1008.87 1009.12 1009.11 1009.15 1009.11 1009.20 1009.38 1009.47 1009.36 1009.93 1010.24 1010.39 1010.34 1010.55 1010.66 1010.93 1011.24 1011.35 1011.44 1011.54
1018.96 1019.70 1019.93 1020.14 1019.88 1018.60 1016.83 1016.13 1015.60 1015.52 1015.49 1015.45 1015.34 1015.15 1015.01 1014.94 1014.92 1015.06 1014.97 1014.73 1014.35 1013.83 1013.19 1012.49 1011.98 1011.53 1011.08 1010.60 1010.18 1010.24 1010.21 1010.10 1009.86 1009.61 1009.40 1009.82 1009.97 1009.78 1010.07 1010.44 1010.69 1010.62 1010.58 1010.44 1010.70 1010.81 1010.89 1011.08 1011.14
1019.23 1019.39 1019.72 1019.89 1019.54 1019.07 1017.93 1015.63 1014.68 1014.65 1014.77 1014.75 1014.72 1014.77 1014.55 1014.62 1014.57 1014.79 1015.04 1015.03 1014.86 1014.36 1013.82 1013.21 1012.81 1012.35 1011.82 1011.51 1011.25 1011.12 1011.12 1010.94 1010.62 1010.70 1010.70 1010.36 1010.42 1010.55 1010.79 1011.10 1011.17 1011.21 1011.37 1010.99 1010.86 1010.87 1010.71 1010.25 1010.91
1017.48 1017.90 1018.47 1018.96 1019.10 1018.97 1018.42 1015.40 1013.65 1013.89 1014.12 1014.18 1014.29 1014.12 1013.90 1014.04 1014.30 1014.55 1014.83 1015.02 1015.00 1014.87 1014.52 1014.12 1013.70 1013.27 1012.74 1012.43 1012.13 1011.94 1012.05 1011.81 1011.34 1011.45 1011.49 1011.33 1010.81 1011.20 1011.58 1011.87 1011.99 1012.05 1011.73 1011.97 1011.39 1011.47 1011.62 1011.55 1011.67
Wind_Speed
10 9 7 2 2 3 6 4 9 5 2 6 9 6 2 15 9 5 8 9 7 8 9 11 10 11 9 9 9 10 10 9 8 8 8 12 6 7 7 7 6 6 9 11 11 12 12 11 11
7 9 2 3 2 4 6 6 5 8 8 8 7 2 3 6 7 7 3 12 7 4 8 10 10 10 10 10 10 10 9 8 8 7 7 11 7 7 7 7 6 6 7 10 12 12 13 10 10
9 11 1 3 4 5 2 5 10 9 4 2 3 5 7 4 11 5 9 9 8 3 7 7 13 11 9 9 9 9 9 9 8 6 7 10 8 7 8 8 6 6 9 9 12 13 11 8 8
5 1 4 3 9 3 8 6 11 7 4 5 6 8 6 7 4 6 8 8 9 11 4 13 13 11 9 9 8 8 8 8 9 7 7 9 10 9 8 7 5 7 10 8 12 12 9 6 6
3 3 3 5 10 6 9 8 4 7 5 6 2 5 6 5 10 8 6 6 9 9 2 6 10 9 8 7 8 8 8 8 7 6 5 4 7 7 8 7 7 9 9 10 10 10 7 5 5
1 2 4 5 7 8 8 4 2 2 5 7 1 3 5 9 9 7 8 6 6 6 9 5 7 8 7 7 7 7 7 7 7 6 5 5 4 5 5 8 11 11 10 11 9 8 7 5 7
2 2 5 4 7 6 7 7 5 4 6 5 3 5 5 9 6 5 6 8 5 5 6 6 3 6 7 7 8 8 8 7 6 6 6 6 6 5 6 8 11 12 11 11 10 8 6 5 6
3 3 4 3 3 5 5 2 7 6 6 1 4 3 4 4 5 3 6 6 6 6 4 5 6 2 6 7 9 8 9 9 9 9 7 6 6 6 7 9 12 12 11 10 10 9 7 5 5
2 2 3 2 3 5 3 2 3 1 4 6 3 4 4 7 4 2 4 5 5 4 4 7 5 6 5 3 9 11 10 9 8 7 8 6 4 7 7 8 11 12 11 11 10 9 7 6 5
1 1 7 7 7 6 6 4 6 5 4 5 5 6 5 5 3 6 5 5 4 5 5 3 6 5 5 5 1 7 7 5 5 6 7 5 6 6 9 10 13 12 11 11 10 9 8 7 4
3 1 4 7 8 7 5 3 2 4 6 6 5 8 9 7 8 7 5 5 6 5 3 5 5 6 4 4 3 3 3 5 5 8 8 8 7 5 6 4 5 4 6 4 5 5 4 6 5
2 4 4 3 5 2 3 7 5 7 7 10 9 7 6 9 8 8 8 7 7 7 6 5 5 5 7 3 4 5 3 2 3 4 8 6 6 5 5 6 7 6 6 6 6 4 6 7 8
3 6 2 1 2 5 6 7 7 13 10 9 9 8 8 8 8 8 9 8 7 7 7 7 6 6 6 6 4 5 4 4 6 6 5 4 4 5 6 6 5 6 5 8 7 7 8 8 7
4 4 2 2 3 3 5 6 4 8 7 5 5 7 8 8 8 8 7 7 7 7 8 7 8 7 6 6 6 5 5 7 5 3 3 5 4 4 4 5 5 5 5 5 5 6 6 7 6
4 2 7 7 2 1 3 7 10 12 8 5 5 8 9 10 10 10 9 9 9 7 7 7 7 8 7 7 6 5 6 4 5 5 6 7 5 6 6 4 5 5 5 6 4 5 2 4 3
3 1 2 5 4 3 2 7 3 6 2 7 8 7 9 10 10 7 7 7 7 7 8 7 8 7 8 7 6 4 5 5 4 6 5 7 6 7 6 5 4 5 5 5 4 4 4 3 3
3 3 4 4 4 1 3 7 9 11 11 12 10 9 9 8 6 4 6 7 7 7 8 8 8 9 8 7 6 6 6 4 4 4 5 7 8 7 6 5 5 5 4 5 4 4 3 4 4
2 3 3 4 6 4 7 14 15 13 10 9 9 8 7 8 6 6 6 6 7 8 8 8 7 8 8 6 5 5 4 3 4 4 5 7 5 5 6 4 5 5 4 5 4 5 5 4 4
7 5 6 6 8 4 8 12 13 11 9 8 7 9 8 9 9 9 7 8 9 8 8 8 9 8 5 4 4 4 4 3 4 6 7 8 7 6 5 5 5 4 4 5 6 4 5 4 3
4 5 5 2 2 4 10 13 19 12 3 6 9 9 11 15 16 16 16 10 9 12 13 8 8 9 6 4 3 4 4 4 5 5 8 6 6 10 6 5 4 5 3 5 5 5 3 3 4
6 4 5 5 8 9 8 8 4 4 4 7 6 7 10 13 16 16 16 15 12 10 11 13 9 8 8 7 4 3 3 2 4 5 7 9 8 6 5 6 6 5 4 4 4 5 7 6 3
4 4 4 7 6 3 8 7 6 3 2 3 8 9 10 12 13 13 16 16 16 16 10 13 14 8 8 8 4 7 5 5 4 5 6 8 8 8 6 6 5 6 4 5 5 5 4 5 6
4 5 6 8 7 8 3 0 7 5 3 7 9 10 10 12 15 17 17 17 17 17 13 14 14 8 7 6 7 6 6 4 4 3 5 6 6 7 6 6 6 6 4 5 6 5 5 4 5
8 7 11 2 3 4 8 6 6 1 3 5 10 12 12 13 14 15 16 16 16 15 15 13 13 7 7 7 8 8 8 7 5 4 4 4 4 4 6 6 6 7 6 6 5 5 6 8 8
4 5 2 3 3 5 4 2 9 4 4 3 8 10 10 12 11 14 15 15 15 17 10 9 9 7 7 7 8 7 8 8 7 7 6 5 4 4 6 5 7 4 5 6 6 6 6 7 8
1 3 1 4 3 4 3 6 7 4 6 5 4 7 8 7 7 11 15 15 15 15 14 12 12 7 8 6 8 7 8 5 5 6 5 4 4 4 5 5 6 6 6 5 5 4 6 7 8
0 0 3 1 4 4 5 6 7 4 3 2 4 8 6 7 9 9 13 13 14 14 13 13 11 10 12 11 5 1 5 5 4 6 4 5 4 3 4 6 6 6 6 6 6 6 8 7 9
4 1 2 2 3 5 4 5 6 5 4 3 4 4 6 4 7 6 10 13 13 12 11 11 11 9 9 11 11 9 8 7 8 7 4 1 3 5 5 3 4 5 5 4 6 5 6 8 5
3 3 2 2 2 2 5 7 6 7 7 6 5 5 5 5 5 5 6 9 11 12 13 12 11 11 10 10 10 10 9 8 9 8 7 5 8 8 9 7 8 8 8 5 6 6 4 6 4
6 6 6 2 1 3 2 9 6 6 7 5 5 8 1 1 3 4 4 4 7 10 12 12 11 10 10 11 11 12 10 8 11 11 9 5 10 10 10 8 9 8 8 9 5 9 7 8 8
Wind_Direction
285 248 235 219 193 237 241 259 85 78 29 54 33 35 344 45 21 74 99 29 6 137 143 151 154 150 145 140 146 147 151 157 159 153 155 136 146 153 145 141 127 107 100 108 109 101 96 93 91
290 230 266 229 255 193 247 140 134 112 50 12 45 324 267 82 16 75 35 11 335 144 157 154 155 156 149 144 145 147 152 155 154 159 158 134 155 166 161 154 149 132 114 114 115 108 97 99 97
274 244 206 182 214 234 56 91 92 66 73 182 162 32 10 18 43 36 24 345 314 336 167 144 155 160 155 154 155 158 157 153 157 159 167 138 169 180 178 178 170 150 117 118 106 103 103 106 106
242 248 282 269 234 92 86 59 93 105 83 0 344 95 85 49 50 3 38 349 5 357 95 142 150 159 162 167 163 169 168 167 164 167 182 151 174 190 192 192 163 140 131 117 117 111 111 110 111
268 259 253 205 262 91 50 66 132 161 140 147 216 132 95 77 69 11 24 28 21 355 42 140 159 161 165 173 172 172 176 176 169 169 180 195 188 198 206 176 179 150 141 134 130 126 125 132 144
175 317 234 232 204 85 90 43 355 107 138 84 257 130 88 79 55 356 12 25 50 9 359 119 144 155 167 180 184 192 195 191 178 187 185 212 233 199 200 189 183 157 151 144 143 140 136 131 164
248 201 261 265 118 107 90 13 323 335 148 45 43 351 118 88 86 15 26 5 48 35 14 6 177 167 168 193 201 200 199 194 187 203 204 206 208 203 196 185 172 166 163 156 153 155 150 146 140
307 16 294 319 119 89 64 13 359 347 45 40 10 27 78 109 110 68 38 9 16 14 28 359 346 165 183 177 199 213 210 204 201 206 209 206 219 208 208 194 177 174 167 163 160 162 167 163 162
320 318 244 353 63 86 128 254 103 47 295 323 345 349 85 141 184 115 48 8 357 359 34 355 331 328 307 286 195 188 196 205 217 202 200 200 213 198 194 181 173 173 172 170 170 169 176 170 172
220 296 28 16 35 51 78 342 29 336 278 239 229 246 247 261 323 25 351 326 317 315 327 333 335 320 309 317 74 186 189 191 199 200 191 194 210 222 183 171 170 177 177 176 172 175 183 187 199
155 337 12 58 46 16 357 306 240 309 278 245 305 356 353 354 344 330 303 280 273 262 279 284 283 296 277 284 295 274 210 185 201 207 196 192 214 209 169 132 166 167 175 179 171 179 189 200 226
165 78 26 82 86 328 293 350 303 248 250 307 313 316 315 313 309 304 297 288 280 275 265 271 278 275 285 205 248 269 253 216 216 240 203 201 206 172 155 150 161 179 173 194 186 191 201 215 223
251 122 100 123 209 239 262 262 256 266 270 278 281 269 269 261 261 265 263 266 271 262 250 246 247 258 258 276 211 244 231 212 213 232 221 231 206 158 150 167 166 186 181 196 185 198 201 210 216
37 85 258 186 259 271 276 272 303 254 220 232 272 267 261 250 248 254 261 267 267 269 263 237 228 237 244 251 256 252 256 198 218 204 223 260 194 152 164 164 180 189 183 210 191 190 207 203 199
115 247 195 216 191 249 328 260 216 241 253 273 273 257 241 234 237 233 227 237 241 248 266 270 236 224 235 251 251 252 265 257 187 201 200 243 200 162 177 190 187 188 184 202 222 231 228 219 197
213 341 259 82 152 120 306 267 326 133 238 283 279 285 281 265 259 261 249 237 254 240 241 248 249 232 220 234 253 244 255 261 260 184 215 225 222 173 182 186 197 197 184 194 206 204 238 236 217
201 227 188 179 170 327 188 283 306 334 310 288 279 276 279 287 306 324 356 337 320 300 285 260 244 228 225 227 238 250 244 268 287 241 197 215 215 204 173 182 202 197 204 195 194 215 194 213 233
308 216 153 226 173 195 266 262 277 273 266 271 270 284 343 336 326 342 327 301 282 270 278 285 258 236 222 217 225 240 220 232 267 286 217 208 234 228 178 196 202 174 178 209 205 193 207 203 203
332 356 316 317 61 15 259 273 279 280 279 292 18 358 340 339 335 338 359 350 325 294 258 259 269 252 224 214 211 229 216 207 247 254 276 200 194 218 198 207 231 196 196 186 186 198 204 243 219
346 323 286 36 104 262 271 279 273 271 84 64 35 359 359 355 344 339 337 339 332 320 305 250 253 254 242 197 209 209 206 191 209 238 253 266 228 189 198 194 206 209 197 186 201 198 211 213 209
209 285 4 319 318 265 343 288 160 153 204 95 53 15 357 347 328 321 318 316 307 300 301 304 240 247 233 215 199 248 253 206 199 222 229 251 243 238 201 192 190 201 176 190 202 201 209 224 225
286 34 317 314 355 287 40 284 305 199 174 101 35 14 344 328 321 319 319 314 306 297 299 297 284 236 231 219 203 203 205 213 221 208 221 219 234 227 214 216 204 196 188 198 209 203 197 184 219
24 354 302 285 286 321 295 263 263 71 325 337 7 339 332 322 331 329 321 308 303 295 289 280 284 245 239 214 205 209 218 218 220 212 229 229 219 224 206 198 201 209 195 204 213 192 201 203 220
319 279 250 157 270 267 230 164 267 226 283 335 343 334 329 321 322 333 328 324 310 302 279 271 269 242 225 225 227 217 217 220 209 219 235 210 202 200 207 218 207 207 205 196 199 202 206 222 228
240 287 302 330 240 232 95 251 252 201 47 344 309 314 312 314 328 331 330 327 333 334 312 274 243 233 221 228 222 217 228 234 215 204 227 208 196 200 210 220 223 199 196 194 196 201 216 223 229
322 316 276 274 331 289 218 238 262 114 122 213 280 275 275 307 339 343 347 344 339 344 349 1 357 7 13 267 218 218 223 216 230 222 209 236 214 201 211 211 240 235 210 203 200 200 218 226 236
296 271 29 11 220 279 244 285 277 120 177 183 319 307 333 344 345 0 356 356 350 349 351 1 17 20 18 2 313 316 10 339 263 258 246 263 247 219 213 228 247 228 217 200 201 217 226 217 224
11 41 203 120 321 290 286 279 245 270 221 264 272 305 314 341 342 6 9 4 357 358 356 8 12 29 24 29 29 35 28 18 15 358 267 311 48 58 68 67 51 4 326 215 210 211 219 212 199
156 182 193 324 259 311 314 270 209 210 195 233 251 291 308 338 355 22 28 10 2 3 9 13 12 20 32 33 40 39 35 35 42 35 12 75 73 58 56 41 47 54 22 9 84 53 334 197 117
177 186 166 173 87 250 282 270 170 188 207 201 223 267 256 322 11 18 79 34 12 8 9 11 11 24 31 34 37 42 29 37 57 47 31 29 87 72 65 61 65 47 60 32 51 70 47 63 67